Погода в Павловском

Россия / Пермский край     57°50′30″N   54°50′07″E
темп.,
°C
ветер,
м/с
пор.,
м/с
влажн.,
%
обл.,
%
осадки,
мм/ч
давл.,
гПа
погр.,
м
14 апреля, ср
ср1423:00+8ююз4119199 0.0 1033214
02:00+7юз3109481 0.0 1031190
05:00+6юз3795100 0.0 1032120
08:00+6юз36100100 0.1 1031200
11:00+8ююз3799100 0.3 1031245
14:00+11ююз468586 0.0 1030448
17:00+15юз467244 0.0 1028703
20:00+11ююз22885 0.0 102728
15 апреля, чт
чт1523:00+9ююз37915 0.0 1026114
02:00+8ююз389336 0.0 1025124
05:00+7ююз389413 0.0 1024135
08:00+8ююз399110 0.0 1023227
11:00+13юз587110 0.0 1022502
14:00+16юз576049 0.0 10201178
17:00+15зюз4764100 0.0 1019755
20:00+13з267899 0.1 1019119
16 апреля, пт
пт1623:00+7ссв51088100 0.9 1022552
02:00+4св61289100 1.4 1023587
05:00+3св5108798 2.7 1025828
08:00+3св61171100 0.0 1026765
11:00+6св68521 0.0 1027889
14:00+8св56431 0.0 10271186
17:00+8св45390 0.0 10271225
20:00+5ссв37544 0.0 1027186
17 апреля, сб
сб1723:00+2ссв23645 0.0 102860
02:00+1с25725 0.0 102883
05:000ссз22725 0.0 102827
08:00+2ссз26641 0.0 1028223
11:00+7ссз46555 0.0 10271048
14:00+9ссз464728 0.0 10261617
17:00+9ссз584591 0.0 10251954
20:00+7ссз37615 0.0 1025268
18 апреля, вс
вс1823:00+4сз3107363 0.0 1025249
02:00+2сз311795 0.0 1024285
05:00+2сз412805 0.0 1024417
08:00+2с5108893 0.0 1025851
11:00+3ссв686092 0.1 10271511
14:00+4ссв68346 0.0 10281951
17:00+4ссв6831100 0.0 10302335
20:00+1св58445 0.0 1032921